Weather in Taylakova

Russia / Khanty-Mansi Autonomous Okrug — Yugra     59°15′05″N   73°57′15″E
temp.,
°C
wind,
m/s
gust,
m/s
humid.,
%
clouds,
%
prec.,
mm/h
press.,
hPa
HPBL,
m
17 may, mon
mon1723:00+10ese129626 0.0 101618
02:00+9sse119791 0.0 101511
05:00+11sse259622 0.7 1014150
08:00+16ssw367887 0.0 1012525
11:00+22wsw245692 0.1 10111215
14:00+25wnw3644100 0.0 10091877
17:00+24nw245165 0.0 1007508
20:00+15nnw71396100 16.3 1007689
18 may, tue
tue1823:00+13w399680 18.6 1007245
02:00+12wnw279888 0.0 1007266
05:00+13n2494100 0.1 1008483
08:00+11ne3695100 1.7 1009466
11:00+11ne3692100 2.9 1011641
14:00+13nne4680100 0.1 1012922
17:00+11ne4883100 0.4 1014808
20:00+9ne397899 0.0 1016530
19 may, wed
wed1923:00+6n258632 0.0 101895
02:00+6n248870 0.0 101994
05:00+6nne24850 0.0 1020149
08:00+11n35495 0.0 10211223
11:00+13n353459 0.0 10202302
14:00+14n5737100 0.0 10202527
17:00+11n674291 0.0 10211820
20:00+7n494547 0.0 1022413
20 may, thu
thu2023:00+3nne2761100 0.0 1024155
02:00+1ne226171 0.0 102424
05:00+3ssw005499 0.0 102478
08:00+5wsw3350100 0.1 1024600
11:00+3sse4894100 2.9 1020340
14:00+5s51190100 0.9 1017470
17:00+6se3795100 2.6 1014208
20:00+9ssw269789 1.5 1012161
21 may, fri
fri2123:00+10sse229899 2.3 101143
02:00+11w315945 0.1 1009320
05:00+13wnw3119122 0.1 1010266
08:00+19wnw4127538 0.0 1010505
11:00+25nw594637 0.0 10101516
14:00+25nw494573 0.0 1010957
17:00+23nnw4954100 0.0 1011785
20:00+17ne279298 0.6 1013184